Torna al catalogo

THOR ABLESTAR DEB

LostLEO
NORAD 48825·DEBRIS·🇺🇸 United States

Lanciato Jun 29, 1961 da Cape Canaveral Space Force Station

Loading…

Prossimi Passaggi (prossime 24 ore)

TLE

ObsoletoSource: Space-Track

Epoca: May 31, 2024, 12:21 UTC

1 48825U 61015ND  24152.51499189  .00010392  00000-0  33759-2 0  9994
2 48825  65.7967 202.1045 0031463 201.5694 158.4078 14.38862081546680

Traccia THOR ABLESTAR DEB in tempo reale con AllMySat

Download on the App Store